Location: Lahas
(43.5538°N, 0.8906°E)
Time: 05:42:08
(UTC+00:00)

Aureole 1 Rocket - Pass Details

Date: 15 May 2026
Orbit: 372 x 1149 km, 73.9° (Epoch: 6 June)

Event Time Altitude Azimuth Distance (km) Brightness Sun altitude
Rises 22:15:27 0° 341° (NNW) 3,371 8.3 -23.5°
Reaches altitude 10° 22:17:44 10° 343° (NNW) 2,541 7.3 -23.7°
Maximum altitude 22:23:44 73° 69° (ENE) 1,048 4.1 -24.2°
Enters shadow 22:25:36 49° 137° (SE) 1,307 4.2 -24.3°
